Flag for Tajikistan Weather past 2 weeks in Dushanbe, Tajikistan

Now
84 °F

Clear.


Feels Like: 82 °F
Forecast: 72 / 99 °F
Wind: 3 mph from South

Location: Dushanbe Airport

Current Time: Aug 20, 2014 at 8:31:02 PM

Latest Report: Aug 20, 2014 at 8:00 PM


Visibility: N/A

Pressure: 29.80 "Hg

Humidity: 23%

Dew point: 43 °F

Location of DushanbeLocation

Historic Weather in Dushanbe — Graph

°F

Dushanbe temperature yesterday

Maximum temperature yesterday: 97 °F (at 3:30 PM)
Minimum temperature yesterday: 61 °F (at 4:30 AM)
Average temperature yesterday: 79 °F

Past Weeks' High & Low Weather Summary

 TemperatureHumidityPressure
High99 °F (Aug 6, 5:00 PM)56% (Aug 8, 6:30 AM)29.95 "Hg (Aug 8, 6:30 AM)
Low61 °F (Aug 18, 6:00 AM)5% (Aug 7, 3:00 PM)29.59 "Hg (Aug 7, 3:30 PM)
Average81 °F27%29.77 "Hg
* Reported Aug 5 7:00 PM — Aug 20 7:30 PM, Dushanbe, Weather by CustomWeather, © 2014

Note: Actual official high and low records may vary slightly from our data, if they occured in-between our weather recording intervals... More about our weather records

Advertising

Dushanbe weather history for previous 24 hours

 ConditionsComfort  
Time TempWeatherWind HumidityBarometerVisibility
7:30 PM
Aug 20
84 °FClear.1 mph22%29.80 "HgN/A
7:00 PM88 °FSunny.8 mph17%29.77 "HgN/A
6:30 PM90 °FSunny.8 mph18%29.77 "HgN/A
6:00 PM93 °FSunny.8 mph17%29.77 "HgN/A
5:30 PM97 °FSunny.1 mph9%29.77 "HgN/A
5:00 PM97 °FSunny.1 mph9%29.77 "HgN/A
4:30 PM97 °FSunny.1 mph8%29.77 "HgN/A
4:00 PM99 °FSunny.1 mph9%29.80 "HgN/A
3:30 PM97 °FSunny.3 mph9%29.80 "HgN/A
3:00 PM99 °FSunny.3 mph9%29.80 "HgN/A
2:30 PM97 °FSunny.1 mph9%29.83 "HgN/A
2:00 PM97 °FSunny.1 mph7%29.83 "HgN/A
1:30 PM95 °FSunny.3 mph10%29.83 "HgN/A
1:00 PM95 °FSunny.3 mph10%29.86 "HgN/A
12:30 PM93 °FSunny.3 mph12%29.86 "HgN/A
12:00 PM95 °FSunny.3 mph11%29.89 "HgN/A
11:30 AM91 °FSunny.3 mph14%29.89 "HgN/A
11:00 AM90 °FSunny.3 mph17%29.89 "HgN/A
10:30 AM88 °FSunny.1 mph21%29.89 "HgN/A
10:00 AM84 °FSunny.1 mph23%29.89 "HgN/A
9:30 AM81 °FSunny.3 mph34%29.89 "Hg6 mi
9:00 AM79 °FSunny.1 mph39%29.92 "Hg4 mi
8:30 AM77 °FSunny.1 mph32%29.92 "Hg4 mi
7:30 AM72 °FSunny.No wind36%29.92 "Hg5 mi
7:00 AM68 °FSunny.1 mph43%29.92 "Hg6 mi
6:30 AM63 °FSunny.1 mph49%29.92 "Hg5 mi
6:00 AM63 °FSunny.1 mph45%29.89 "HgN/A
5:30 AM64 °FClear.1 mph43%29.89 "HgN/A
5:00 AM63 °FClear.1 mph45%29.89 "Hg5 mi
4:30 AM63 °FClear.1 mph45%29.89 "Hg6 mi
4:00 AM64 °FClear.1 mph40%29.89 "HgN/A
3:30 AM68 °FClear.No wind35%29.89 "HgN/A
3:00 AM64 °FClear.1 mph43%29.89 "HgN/A
2:30 AM68 °FClear.1 mph35%29.89 "HgN/A
2:00 AM70 °FClear.3 mph31%29.89 "HgN/A
1:30 AM68 °FClear.3 mph35%29.89 "HgN/A
1:00 AM70 °FClear.1 mph35%29.89 "HgN/A
12:30 AM68 °FClear.1 mph35%29.89 "Hg6 mi
12:00 AM72 °FClear.1 mph33%29.89 "Hg5 mi
11:30 PM
Aug 19
70 °FClear.3 mph33%29.89 "Hg5 mi
11:00 PM73 °FClear.1 mph29%29.89 "Hg5 mi
10:30 PM72 °FClear.3 mph31%29.89 "Hg6 mi
10:00 PM77 °FClear.1 mph28%29.89 "Hg4 mi
9:30 PM79 °FClear.1 mph23%29.86 "Hg4 mi
9:00 PM77 °FClear.1 mph28%29.86 "Hg4 mi
8:30 PM79 °FClear.1 mph26%29.86 "HgN/A
8:00 PM81 °FClear.3 mph24%29.83 "Hg4 mi
Weather by CustomWeather, © 2014

See weather overviewHow to use our weather pages